Waarnemingen

Advertentie
Mijn weer
Nice, Frankrijk (7690): temperatuur & dauwpunt: 14.02.2019 14:00:00 - 20.02.2019 14:00:00 (CET)Nice, Frankrijk (7690): temperatuur 5cm: 14.02.2019 14:00:00 - 20.02.2019 14:00:00 (CET)Nice, Frankrijk (7690): temperatuur -20cm & temperatuur -100cm: 14.02.2019 14:00:00 - 20.02.2019 14:00:00 (CET)Nice, Frankrijk (7690): windsnelheid & windstoten: 14.02.2019 14:00:00 - 20.02.2019 14:00:00 (CET)Nice, Frankrijk (7690): windrichting: 14.02.2019 14:00:00 - 20.02.2019 14:00:00 (CET)Nice, Frankrijk (7690): luchtdruk: 14.02.2019 14:00:00 - 20.02.2019 14:00:00 (CET)Nice, Frankrijk (7690): zicht: 14.02.2019 14:00:00 - 20.02.2019 14:00:00 (CET)Nice, Frankrijk (7690): Zonneschijnduur: 14.02.2019 14:00:00 - 20.02.2019 14:00:00 (CET)Nice, Frankrijk (7690): neerslag: 14.02.2019 14:00:00 - 20.02.2019 14:00:00 (CET)
Datum & Tijd tt [°C] td [°C] tt 5cm [°C] tt -20cm [°C] tt -100cm [°C] ff [km/u] ff [kn] fx [km/u] fx [kn] dd ppp [hPa] vv [km] sd [min] rr [mm]
20.02.2019 14:00:00 - - - - - - - - - - - - - -
20.02.2019 13:00:00 13,7 5,8 20,2 10,7 11,4 9 5 11 6 ZZO 1025,5 40 60 0,0
20.02.2019 12:00:00 13,8 5,4 19,0 10,7 11,4 5 3 10 6 ZZO 1025,9 40 60 0,0
20.02.2019 11:00:00 12,6 3,5 15,3 10,7 11,4 10 5 21 12 NW 1025,8 40 60 0,0
20.02.2019 10:00:00 10,4 2,5 11,3 10,7 11,4 16 9 28 15 NNW 1025,4 40 60 0,0
20.02.2019 09:00:00 8,3 1,9 6,9 10,7 11,4 16 9 23 12 NNW 1025,1 40 60 0,0
20.02.2019 08:00:00 7,0 1,7 6,0 10,7 11,4 16 9 28 15 NNW 1024,6 40 15 0,0
20.02.2019 07:00:00 7,1 1,8 6,4 10,7 11,4 15 8 22 12 NNW 1023,9 40 0 0,0
20.02.2019 06:00:00 7,5 2,2 6,9 10,7 11,4 13 7 21 11 N 1023,7 40 0 0,0
20.02.2019 05:00:00 8,2 2,6 7,7 10,7 11,4 15 8 26 14 NNW 1023,7 40 0 0,0
20.02.2019 04:00:00 8,5 2,7 8,2 10,7 11,5 19 10 25 13 NNW 1023,6 40 0 0,0
20.02.2019 03:00:00 8,8 3,0 8,4 10,7 11,4 15 8 23 12 NNW 1023,9 40 0 0,0
20.02.2019 02:00:00 8,9 3,1 8,6 10,6 11,4 16 9 23 13 NNW 1024,0 40 0 0,0
20.02.2019 01:00:00 9,1 3,3 8,8 10,6 11,4 16 8 22 12 NNW 1023,9 40 0 0,0
20.02.2019 00:00:00 9,2 3,6 8,6 10,6 11,4 13 7 19 10 NNW 1023,8 40 0 0,0
19.02.2019 23:00:00 8,9 3,7 7,4 10,6 11,4 14 8 18 10 NNW 1023,8 40 0 0,0
19.02.2019 22:00:00 8,5 3,9 7,4 10,6 11,4 13 7 20 11 NNW 1023,8 40 0 0,0
19.02.2019 21:00:00 8,6 4,2 7,1 10,6 11,3 14 8 17 9 NW 1023,6 40 0 0,0
19.02.2019 20:00:00 8,7 4,3 2,3 10,6 11,4 8 4 10 6 NW 1023,5 40 0 0,0
19.02.2019 19:00:00 10,0 4,1 3,0 10,6 11,4 2 1 5 3 ZW 1023,1 40 0 0,0
19.02.2019 18:00:00 11,4 4,6 9,9 10,6 11,4 4 2 9 5 Z 1022,6 40 38 0,0
19.02.2019 17:00:00 12,3 4,5 15,9 10,6 11,4 8 4 15 8 ZZW 1022,7 40 60 0,0
19.02.2019 16:00:00 12,6 4,8 18,5 10,6 11,4 9 5 16 9 Z 1022,9 40 60 0,0
19.02.2019 15:00:00 12,7 4,4 19,1 10,6 11,4 11 6 18 10 Z 1023,0 40 60 0,0
19.02.2019 14:00:00 12,6 3,5 18,8 10,6 11,4 13 7 21 12 ZZW 1023,3 40 60 0,0
19.02.2019 13:00:00 12,9 4,8 19,6 10,6 11,3 12 6 16 8 ZZW 1023,9 40 60 0,0
19.02.2019 12:00:00 12,4 3,1 16,2 10,6 11,4 9 5 18 10 WZW 1024,4 40 60 0,0
19.02.2019 11:00:00 10,2 2,5 8,8 10,6 11,4 15 8 22 12 NNW 1024,5 40 6 0,0
19.02.2019 10:00:00 7,8 1,4 7,0 10,6 11,3 18 10 24 13 NNW 1024,5 40 0 0,0
19.02.2019 09:00:00 6,7 1,4 6,2 10,6 11,3 19 10 26 14 NNW 1024,4 40 0 0,0
19.02.2019 08:00:00 6,2 1,3 5,7 10,6 11,3 21 11 33 18 NNW 1023,8 40 0 0,0
19.02.2019 07:00:00 6,1 1,6 5,8 10,6 11,4 15 8 32 17 NNW 1023,4 40 0 0,0
19.02.2019 06:00:00 6,4 2,1 6,1 10,6 11,3 19 10 28 15 NNW 1023,4 40 0 0,0
19.02.2019 05:00:00 7,1 2,8 6,8 10,5 11,4 15 8 21 11 NNW 1023,4 40 0 0,0
19.02.2019 04:00:00 7,8 3,5 7,4 10,5 11,4 16 9 24 13 N 1023,3 40 0 0,0
19.02.2019 03:00:00 8,4 4,2 7,9 10,5 11,5 12 7 19 10 NNW 1023,9 40 0 0,0
19.02.2019 02:00:00 9,0 4,8 8,6 10,5 11,3 13 7 17 9 NNW 1024,2 40 0 0,0
19.02.2019 01:00:00 10,4 5,6 8,6 10,5 11,4 0 0 8 4 N 1024,3 40 0 0,0
19.02.2019 00:00:00 11,0 5,1 10,1 10,5 11,3 4 2 9 5 W 1024,3 40 0 0,0
18.02.2019 23:00:00 11,3 5,4 10,4 10,5 11,4 4 2 14 8 W 1024,4 40 0 0,0
18.02.2019 22:00:00 11,1 5,8 10,2 10,4 11,3 3 1 11 6 WNW 1024,6 40 0 0,0
18.02.2019 21:00:00 11,4 6,3 10,5 10,4 11,3 7 4 10 5 W 1024,5 40 0 0,0
18.02.2019 20:00:00 11,6 6,5 11,0 10,4 11,3 6 3 8 4 ZW 1024,5 40 0 0,0
18.02.2019 19:00:00 11,9 6,2 11,2 10,4 11,3 3 2 9 5 ZZW 1024,3 30 0 0,0
18.02.2019 18:00:00 12,2 6,5 11,8 10,5 11,3 5 3 9 5 ZZO 1023,9 30 42 0,0
18.02.2019 17:00:00 12,9 6,2 14,5 10,5 11,3 6 3 14 8 Z 1024,1 30 51 0,0
18.02.2019 16:00:00 12,6 6,6 14,9 10,5 11,3 8 5 15 8 Z 1024,5 30 49 0,0
18.02.2019 15:00:00 13,2 6,8 18,8 10,5 11,3 10 5 15 8 Z 1024,6 30 60 0,0
18.02.2019 14:00:00 12,9 6,9 18,1 10,5 11,3 12 6 16 9 Z 1025,2 30 60 0,0
18.02.2019 13:00:00 12,9 6,9 19,9 10,5 11,3 9 5 13 7 Z 1025,8 30 60 0,0
18.02.2019 12:00:00 12,7 4,6 19,8 10,5 11,3 9 5 12 6 Z 1026,7 25 60 0,0
18.02.2019 11:00:00 12,2 3,2 13,9 10,5 11,3 6 3 21 12 NW 1026,5 25 60 0,0
18.02.2019 10:00:00 9,7 1,1 10,3 10,5 11,3 17 9 31 17 NNW 1026,6 25 60 0,0
18.02.2019 09:00:00 7,5 0,9 5,8 10,4 11,3 21 11 27 14 NNW 1026,8 25 60 0,0
18.02.2019 08:00:00 5,9 0,8 5,0 10,5 11,3 19 11 31 17 NNW 1026,8 25 12 0,0
18.02.2019 07:00:00 5,8 1,1 5,0 10,5 11,4 19 10 24 13 NNW 1026,4 50 0 0,0
18.02.2019 06:00:00 6,2 1,5 5,1 10,4 11,3 17 9 22 12 NNW 1026,4 30 0 0,0
18.02.2019 05:00:00 6,5 2,0 5,0 10,4 11,3 15 8 21 12 NNW 1026,2 30 0 0,0
18.02.2019 04:00:00 6,5 2,6 5,2 10,4 11,3 14 7 19 11 NNW 1026,2 30 0 0,0
18.02.2019 03:00:00 6,8 3,2 5,6 10,4 11,3 14 8 18 10 NNW 1026,8 30 0 0,0
18.02.2019 02:00:00 7,3 4,1 6,2 10,4 11,3 15 8 23 12 NNW 1027,4 25 0 0,0
18.02.2019 01:00:00 7,7 4,6 6,7 10,4 11,2 14 8 17 9 NNW 1027,8 20 0 0,0
18.02.2019 00:00:00 8,3 5,8 7,2 10,4 11,3 13 7 17 9 NNW 1027,8 15 0 0,0
17.02.2019 23:00:00 8,2 6,0 7,3 10,4 11,3 14 7 19 11 NNW 1028,0 15 0 0,0
17.02.2019 22:00:00 8,9 6,7 7,7 10,4 11,3 13 7 17 9 NW 1027,9 15 0 0,0
17.02.2019 21:00:00 9,7 7,3 7,9 10,4 11,3 11 6 18 10 NNW 1027,8 20 0 0,0
17.02.2019 20:00:00 10,5 8,1 3,7 10,3 11,2 7 4 13 7 WNW 1027,6 20 0 0,0
17.02.2019 19:00:00 11,6 8,6 6,9 10,4 11,3 2 1 7 4 WZW 1027,6 20 0 0,0
17.02.2019 18:00:00 12,4 8,9 11,1 10,4 11,3 7 4 13 7 ZW 1027,5 20 41 0,0
17.02.2019 17:00:00 13,4 9,1 17,1 10,4 11,2 9 5 13 7 Z 1027,7 20 60 0,0
17.02.2019 16:00:00 13,7 9,1 19,8 10,4 11,3 9 5 13 7 Z 1027,9 20 60 0,0
17.02.2019 15:00:00 13,9 9,5 19,9 10,4 11,3 9 5 12 7 Z 1028,2 20 60 0,0
17.02.2019 14:00:00 13,8 8,4 19,9 10,4 11,3 8 4 12 7 ZZO 1028,7 25 60 0,0
17.02.2019 13:00:00 13,6 7,8 19,8 10,4 11,2 8 4 10 6 Z 1029,2 25 60 0,0
17.02.2019 12:00:00 13,8 4,9 19,9 10,3 11,2 6 3 9 5 OZO 1029,8 25 60 0,0
17.02.2019 11:00:00 13,5 2,4 15,0 10,3 11,2 4 2 18 10 NNW 1029,8 25 60 0,0
17.02.2019 10:00:00 10,9 0,0 11,7 10,4 11,2 13 7 24 13 NNW 1029,7 25 60 0,0
17.02.2019 09:00:00 8,6 -0,2 7,1 10,4 11,3 16 8 29 15 NNW 1030,1 25 60 0,0
17.02.2019 08:00:00 7,3 -0,4 6,2 10,4 11,2 19 11 28 15 NNW 1029,9 25 11 0,0
17.02.2019 07:00:00 7,3 -0,4 6,1 10,4 11,3 21 11 26 14 NW 1029,4 10 0 0,0
17.02.2019 06:00:00 7,5 0,0 6,3 10,4 11,3 18 10 29 16 NNW 1029,1 10 0 0,0
17.02.2019 05:00:00 7,9 0,1 6,4 10,3 11,2 21 11 27 15 NNW 1029,0 10 0 0,0
17.02.2019 04:00:00 8,0 0,2 6,9 10,3 11,3 19 10 26 14 NNW 1029,2 10 0 0,0
17.02.2019 03:00:00 8,2 0,7 6,7 10,4 11,3 21 11 26 14 NNW 1029,5 10 0 0,0
17.02.2019 02:00:00 8,4 0,6 6,7 10,3 11,3 16 9 21 11 NW 1029,7 10 0 0,0
17.02.2019 01:00:00 8,8 0,7 7,0 10,3 11,1 15 8 22 12 NNW 1029,5 10 0 0,0
17.02.2019 00:00:00 8,8 1,2 7,0 10,3 11,2 17 9 25 13 NNW 1029,6 10 0 0,0
16.02.2019 23:00:00 9,0 1,4 7,6 10,3 11,2 18 10 23 12 NNW 1029,8 10 0 0,0
16.02.2019 22:00:00 9,6 1,7 8,2 10,2 11,3 13 7 24 13 NNW 1029,9 10 0 0,0
16.02.2019 21:00:00 9,8 2,2 7,6 10,2 11,1 14 8 18 10 NNW 1029,9 10 0 0,0
16.02.2019 20:00:00 10,1 3,4 7,9 10,3 11,2 14 8 16 9 NW 1029,7 10 0 0,0
16.02.2019 19:00:00 11,5 5,6 5,0 10,2 11,2 0 0 8 5 N 1029,8 8 0 0,0
16.02.2019 18:00:00 13,3 7,1 7,8 10,2 11,2 0 0 4 2 N 1029,6 6 39 0,0
16.02.2019 17:00:00 15,0 8,0 19,2 10,2 11,3 2 1 9 5 Z 1029,8 4,5 60 0,0
16.02.2019 16:00:00 15,3 8,1 21,0 10,2 11,2 6 4 8 5 Z 1030,3 5 60 0,0
16.02.2019 15:00:00 15,8 7,0 21,8 10,2 11,2 6 3 12 7 ZZO 1030,4 8 60 0,0
16.02.2019 14:00:00 16,3 5,3 22,6 10,3 11,2 8 5 13 7 Z 1030,7 20 60 0,0
16.02.2019 13:00:00 16,8 6,9 23,7 10,2 11,2 10 5 12 7 Z 1031,0 40 60 0,0
16.02.2019 12:00:00 17,4 -1,3 19,1 10,2 11,2 5 3 19 11 NW 1031,1 40 60 0,0
16.02.2019 11:00:00 14,9 -0,1 15,1 10,3 11,2 14 8 27 15 NNW 1031,3 40 60 0,0
16.02.2019 10:00:00 12,1 -0,1 12,4 10,2 11,2 21 12 30 16 NNW 1031,1 30 60 0,0
16.02.2019 09:00:00 10,0 -0,5 8,5 10,2 11,2 19 11 34 18 NNW 1031,2 30 60 0,0
16.02.2019 08:00:00 8,7 -0,6 7,2 10,2 11,1 23 12 37 20 NNW 1030,7 30 9 0,0
16.02.2019 07:00:00 8,5 -0,5 7,3 10,2 11,2 16 9 29 16 NNW 1030,4 40 0 0,0
16.02.2019 06:00:00 8,9 -0,2 7,5 10,2 11,2 21 11 29 16 NNW 1030,2 30 0 0,0
16.02.2019 05:00:00 9,4 0,0 7,9 10,2 11,2 17 9 29 16 NNW 1030,2 30 0 0,0
16.02.2019 04:00:00 9,3 0,5 7,6 10,2 11,2 18 10 24 13 NNW 1030,2 30 0 0,0
16.02.2019 03:00:00 9,7 1,1 7,6 10,1 11,2 14 8 25 13 NNW 1030,2 60 0 0,0
16.02.2019 02:00:00 9,0 2,3 7,2 10,1 11,1 16 9 23 13 NNW 1030,5 30 0 0,0
16.02.2019 01:00:00 8,8 3,2 7,0 10,1 11,2 15 8 20 11 NNW 1030,8 30 0 0,0
16.02.2019 00:00:00 8,6 4,0 6,9 10,1 11,1 12 7 22 12 NNW 1030,6 30 0 0,0
15.02.2019 23:00:00 8,8 5,4 7,3 10,1 11,1 18 10 23 12 NW 1030,3 30 0 0,0
15.02.2019 22:00:00 9,1 6,0 7,4 10,1 11,2 13 7 16 8 NW 1030,3 40 0 0,0
15.02.2019 21:00:00 9,3 6,2 7,3 10,1 11,2 8 4 12 6 NNW 1029,9 40 0 0,0
15.02.2019 20:00:00 10,6 7,3 3,9 10,1 11,3 7 4 9 5 NNW 1029,2 40 0 0,0
15.02.2019 19:00:00 11,4 7,7 5,2 10,1 11,1 0 0 6 3 N 1029,0 40 0 0,0
15.02.2019 18:00:00 12,6 8,1 10,0 10,1 11,1 3 2 4 2 OZO 1028,7 40 38 0,0
15.02.2019 17:00:00 13,9 8,9 17,9 10,1 11,2 3 2 8 4 ZZO 1028,6 30 60 0,0
15.02.2019 16:00:00 14,4 8,6 20,6 10,1 11,2 5 3 5 3 ZZO 1028,7 30 60 0,0
15.02.2019 15:00:00 14,7 7,5 19,1 10,1 11,2 5 3 14 7 ZZO 1029,4 30 60 0,0
15.02.2019 14:00:00 14,3 6,9 19,3 10,1 11,1 8 5 12 7 ZO 1029,8 40 60 0,0
15.02.2019 13:00:00 13,9 9,1 19,4 10,1 11,1 10 5 14 8 ZO 1030,5 40 60 0,0
15.02.2019 12:00:00 13,8 9,0 19,3 10,1 11,1 11 6 13 7 ZO 1030,9 40 60 0,0
15.02.2019 11:00:00 14,5 7,1 16,3 10,1 11,1 4 2 22 12 ZO 1031,1 40 60 0,0
15.02.2019 10:00:00 12,5 -0,1 13,1 10,1 11,1 11 6 18 10 NNW 1031,2 40 60 0,0
15.02.2019 09:00:00 10,2 -0,6 8,0 10,1 11,2 13 7 25 14 NNW 1031,3 40 60 0,0
15.02.2019 08:00:00 8,4 -0,9 6,5 10,1 11,2 17 9 38 20 NNW 1031,2 40 8 0,0
15.02.2019 07:00:00 8,0 -0,8 6,0 10,1 11,1 14 7 23 12 NNW 1031,2 30 0 0,0
15.02.2019 06:00:00 8,0 -0,3 6,1 10,0 11,1 15 8 19 11 NNW 1031,4 30 0 0,0
15.02.2019 05:00:00 8,0 0,0 6,2 10,0 11,2 14 8 18 10 NNW 1031,4 30 0 0,0
15.02.2019 04:00:00 8,2 0,2 5,8 10,0 11,2 10 5 22 12 NNW 1031,3 30 0 0,0
15.02.2019 03:00:00 8,6 0,6 6,8 10,0 11,2 13 7 26 14 NNW 1031,1 30 0 0,0
15.02.2019 02:00:00 8,8 1,2 7,0 10,0 11,2 14 8 19 10 NNW 1031,7 30 0 0,0
15.02.2019 01:00:00 8,9 1,5 6,9 10,0 11,1 13 7 16 8 NNW 1031,9 30 0 0,0
15.02.2019 00:00:00 8,6 2,2 6,8 10,0 11,1 12 6 19 10 NNW 1031,7 30 0 0,0
14.02.2019 23:00:00 8,8 2,8 7,2 10,0 11,2 13 7 16 9 NNW 1031,7 30 0 0,0
14.02.2019 22:00:00 8,8 3,6 7,1 10,0 11,2 10 5 16 9 NNW 1031,9 30 0 0,0
14.02.2019 21:00:00 9,5 4,7 7,6 9,9 11,3 9 5 13 7 NNW 1031,9 30 0 0,0
14.02.2019 20:00:00 10,1 6,8 6,5 10,0 11,2 12 6 15 8 NNO 1032,1 30 0 0,0
14.02.2019 19:00:00 12,6 9,4 10,9 9,9 11,2 0 0 17 9 N 1032,1 30 0 0,0
14.02.2019 18:00:00 13,0 9,4 12,0 10,0 11,1 13 7 18 10 ZZW 1031,9 30 37 0,0
14.02.2019 17:00:00 13,8 8,4 16,2 9,9 11,1 11 6 16 9 ZW 1031,9 30 60 0,0
14.02.2019 16:00:00 14,1 7,4 18,8 9,9 11,1 14 8 22 12 Z 1032,3 30 60 0,0
14.02.2019 15:00:00 14,7 7,0 20,0 9,9 11,1 13 7 23 12 Z 1032,5 30 60 0,0
14.02.2019 14:00:00 14,8 5,0 19,4 10,0 11,2 18 10 23 12 Z 1033,1 30 60 0,0

tt = temperatuur
td = dauwpunt
tt 5cm = temperatuur 5cm
tt -20cm = temperatuur -20cm
tt -100cm = temperatuur -100cm
ff = windsnelheid
fx = windstoten
dd = windrichting
ppp = luchtdruk
vv = zicht
sd = Zonneschijnduur
rr = neerslag

Weerstations in de omgeving